Location: Newark
(47.3153°N, 5.7094°E)
Time: 16:09:58
(UTC+00:00)

ISS - Visible Passes

Search period start: 22 September 2019 00:00
Search period end: 02 October 2019 00:00
Orbit: 411 x 421 km, 51.6° (Epoch: 23 September)

Date Brightness Start Highest point End Pass type
(mag) Time Alt. Az. Time Alt. Az. Time Alt. Az.
22 Sep -3.8 19:23:07 10° WSW 19:26:26 77° NNW 19:26:54 62° NE visible
23 Sep -3.9 18:34:40 10° WSW 18:38:00 74° SSE 18:40:32 16° ENE visible
23 Sep -1.5 20:11:44 10° W 20:13:25 25° WNW 20:13:25 25° WNW visible
24 Sep -3.0 19:23:07 10° W 19:26:21 47° NNW 19:26:57 41° NNE visible
25 Sep -3.3 18:34:31 10° W 18:37:48 59° NNW 18:40:23 15° ENE visible
25 Sep -1.2 20:11:47 10° WNW 20:13:17 22° NW 20:13:17 22° NW visible
26 Sep -2.7 19:23:10 10° WNW 19:26:18 37° N 19:26:39 36° NNE visible
27 Sep -2.8 18:34:31 10° W 18:37:42 41° N 18:40:00 17° ENE visible
27 Sep -1.1 20:11:39 10° WNW 20:12:53 20° NW 20:12:53 20° NW visible
28 Sep -2.8 19:23:05 10° WNW 19:26:11 38° N 19:26:11 38° N visible
29 Sep -2.7 18:34:29 10° WNW 18:37:37 37° N 18:39:28 20° ENE visible
29 Sep -0.9 20:11:22 10° WNW 20:12:21 18° WNW 20:12:21 18° WNW visible
30 Sep -3.0 19:22:50 10° WNW 19:25:38 46° NNW 19:25:38 46° NNW visible
01 Oct -3.0 18:34:16 10° WNW 18:37:28 42° N 18:38:54 26° ENE visible
01 Oct -0.7 20:11:02 10° WNW 20:11:48 16° WNW 20:11:48 16° WNW visible
